www.pogodaiklimat.ru

Погода и климат >> Архив погоды >> Мьянма >> Тандве


ПОГОДА в Тандве

  • Прогноз погоды в Тандве
  • Монитор погоды в Тандве

АРХИВ ПОГОДЫ в Тандве

Время (UTC), дата Ветер
(напр.,м/с)
 
Видим.   Явления Облачность Т
(С)
Тd
(С)
f
(%)
Тe
(С)
Тes
(С)
Комфортность P
(гПа)
Po
(гПа)
Тmin
(С)
Tmax
(С)
R
(мм)
R24
(мм)
S
(см)
00 17.01 штиль 0 800 м туман на расстоянии 3/3 600 м
[Cu Sc]
+11.0 +11.0 100 +10 +10 1013.0 1013.0 +4.9
03 17.01 штиль 0 10 км {туман} 1/1 600 м
[Cu hum]
+14.5 +13.4 93 +14 +23 1014.6 1015.0
06 17.01 ЮВ 2 12 км ясно +29.0 +19.6 57 +35 +48 очень
душно
1013.1 1013.0
09 17.01 ЮЗ 3 12 км ясно +30.5 +22.5 62 +40 +44 очень
душно
1011.1 1011.0
12 17.01 штиль 0 6000 м ясно +25.0 +20.5 76 +31 +31 очень
душно
1011.6 1012.0 +32.0
15 17.01 штиль 0 5000 м ясно +17.0 +15.4 90 +17 +17 1013.8 1014.0
00 18.01 штиль 0 6000 м ясно +12.5 +12.5 100 +12 +12 1013.3 1013.0 +12.0
03 18.01 СВ 1 10 км ясно +17.0 +15.4 90 +18 +26 1014.6 1015.0
06 18.01 СЗ 1 11 км 1/1 600 м
[Cu hum]
+30.0 +22.3 63 +39 +53 опасность
солнечного
удара
1014.0 1014.0
09 18.01 ЮЗ 4 10 км 8/4 300 м
[Cu Sc Ac As]
+31.5 +22.5 59 +41 +42 опасность
перегрева
1011.4 1011.0
12 18.01 штиль 0 6000 м 6/4 300 м
[Cu Sc Ac As]
+25.0 +21.9 83 +32 +32 очень
душно
1012.7 1013.0 +32.5
15 18.01 штиль 0 5000 м 6/4 300 м
[Cu Sc Ac As]
+18.5 +18 +18 1013.5 1014.0
00 19.01 штиль 0 6000 м ясно +15.5 +14.4 93 +15 +15 1013.0 1013.0 +11.5
03 19.01 штиль 0 10 км ясно +18.5 +17.5 94 +19 +29 1014.5 1015.0
06 19.01 ЮЗ 1 12 км ясно +30.0 +22.3 63 +39 +55 опасность
солнечного
удара
1013.8 1014.0
09 19.01 З 3 11 км ясно +31.0 +23.7 65 +42 +46 опасность
перегрева
1011.8 1012.0
12 19.01 ЮЗ 1 7000 м ясно +25.0 +23.3 90 +33 +33 очень
душно
1012.0 1012.0 +33.0
15 19.01 штиль 0 5000 м ясно +19.0 +17.5 91 +20 +20 1013.6 1014.0
03 20.01 СВ 1 8000 м {туман} ясно +17.0 +15.4 90 +18 +26 1015.5 1016.0
06 20.01 СВ 4 11 км ясно +28.5 +21.5 66 +36 +46 очень
душно
1014.3 1014.0
09 20.01 СЗ 3 12 км ясно +31.0 +20.3 53 +38 +42 очень
душно
1011.4 1011.0
12 20.01 штиль 0 7000 м ясно +24.0 +19.1 74 +29 +29 душно 1011.8 1012.0 +32.2
15 20.01 штиль 0 5000 м ясно +20.0 +18.5 91 +23 +23 комфорт 1013.5 1014.0
00 21.01 штиль 0 3000 м дымка ясно +11.0 +11.0 100 +10 +10 1014.2 1014.0 +9.3
03 21.01 В 1 10 км {туман} ясно +16.0 +14.4 90 +17 +25 1015.3 1015.0
09 21.01 ЮЗ 4 12 км 4/4 600 м
[Cu Sc]
+31.5 +21.5 55 +39 +41 очень
душно
1012.2 1012.0
12 21.01 штиль 0 6000 м 3/3 300 м
[Sc]
+24.0 +17.4 67 +28 +28 душно 1012.0 1012.0 +32.9
15 21.01 штиль 0 5000 м ясно +15.4 +16 +16 1014.4 1014.0
00 22.01 штиль 0 6000 м 5/3 300 м
[Cu Sc Ac As]
+11.5 +10.2 92 +11 +11 1013.5 1014.0 +9.0
03 22.01 штиль 0 10 км 3/3 600 м
[Cu Sc]
+14.5 +13.4 93 +14 +21 1015.1 1015.0
06 22.01 ЮЗ 4 12 км 5/3 600 м
[Cu Sc Ac As]
+31.5 +21.5 55 +39 +45 очень
душно
1014.4 1014.0
09 22.01 ЮЗ 3 12 км 4/4 600 м
[Cu Sc]
+32.0 +21.5 54 +40 +43 очень
душно
1012.1 1012.0
12 22.01 штиль 0 6000 м 1/1 300 м
[Sc]
+25.0 +20.5 76 +31 +31 очень
душно
1013.0 1013.0 +33.0
15 22.01 штиль 0 5000 м ясно +17.0 +15.4 90 +17 +17 1015.3 1015.0
00 23.01 штиль 0 6000 м ясно +12.5 +11.3 92 +12 +12 1014.3 1014.0 +10.0
03 23.01 штиль 0 10 км ясно +15.5 +14.4 93 +15 +25 1015.0 1015.0
06 23.01 ЮЗ 3 12 км ясно +32.0 +21.5 54 +40 +52 опасность
солнечного
удара
1014.7 1015.0
09 23.01 ЮЗ 4 12 км ясно +33.5 +24.0 58 +45 +49 опасность
перегрева
1012.0 1012.0
12 23.01 штиль 0 6000 м ясно +26.5 +21.1 72 +33 +33 очень
душно
1012.2 1012.0 +34.2

 

Местоположение метеостанции Тандве (Мьянма): широта 18.47 долгота 94.35 высота над уровнем моря 11 м.

В архиве по умолчанию представлена погода в Тандве за последнюю неделю. Архивные данные за месяц целиком и за предыдущие месяцы, начиная с января 2011 года, Вы можете получить, выбрав интересующий диапазон дат из раскрывающегося списка и нажав кнопку "Ввод!".


*Определитесь, кто Вы:
робот инопланетянин человек

Внимание! Время в таблицах - всемирное. Для получения местного времени необходимо прибавить поправку, которая равна 6.5 ч.

Смотрите также архив погоды в соседних городах и на ближайших метеорологических станциях:

Погода в Манаунге (Мьянма) (78 км)
Погода в Проме (Мьянма) (99 км)
Погода в Гва (Мьянма) (102 км)
Погода в Кяокпю (Мьянма) (135 км)
Погода в Хинтаде (Мьянма) (144 км)
Погода в Бассейне (Мьянма) (194 км)
Погода в Минбу (Мьянма) (197 км)
Погода в Магуэе (Мьянма) (197 км)
Погода в Таунгу (Мьянма) (229 км)
Погода в Хмавби (Мьянма) (234 км)

Пояснения к столбцам:

Ветер - указаны скорость ветра в м/с - средняя за 10 мин, порывы в срок и между сроками (в фигурных скобках) и направление, откуда дует ветер: С - северный, СВ - северо-восточный, В - восточный, ЮВ - юго-восточный, Ю - южный, ЮЗ - юго-западный, З - западный, СЗ - северо-западный.
Видимость - горизонтальная дальность видимости в метрах или километрах. При видимости от 1 до 10 км при отсутствии осадков обычно наблюдается дымка, при ухудшении видимости до 1 км и менее - туман. В сухую погоду видимость может ухудшаться дымом, пылью или мглою.
Явления - указаны атмосферные явления, наблюдавшиеся в срок или в последний час перед сроком; фигурными скобками обозначены явления, наблюдавшиеся между сроками (за 1-3 часа до срока); квадратными скобками обозначены град или гололедные отложения с указанием их диаметра в мм.
Облачность - указаны через наклонную черту общая и нижняя облачность в баллах и высота нижней границы облаков в метрах; квадратными скобками обозначены формы облаков: Ci - перистые, Cs - перисто-слоистые, Cc - перисто-кучевые, Ac - высококучевые, As - высокослоистые, Sc - слоисто-кучевые, Ns - слоисто-дождевые, Cu - кучевые, Cb - кучево-дождевые. Подробнее классификацию облаков см. в Атласе облаков (PDF).
T - Температура воздуха - температура, измеренная на высоте 2 м над землей.
Td - Температура точки росы - температура, при понижении до которой содержащийся в воздухе водяной пар достигнет насыщения.
f - Относительная влажность воздуха - влажноcть воздуха, измеренная на высоте 2 м над землей.
Te - Эффективная температура - температура, которую ощущает одетый по сезону человек в тени. Характеристика душности погоды. При расчете учитывается влияние влажности воздуха и скорости ветра на теплоощущения человека.
Tes - Эффективная температура на солнце - температура, которую ощущает человек, с поправкой на солнечный нагрев. Характеристика знойности погоды. Зависит от высоты солнца над горизонтом, облачности и скорости ветра. Ночью, в пасмурную погоду, а также при ветре 12 м/с и более поправка равна нулю.
P - Атмосферное давление - приведенное к уровню моря атмосферное давление.
Po - Атмосферное давление - измеренное на уровне метеостанции атмосферное давление.
Tmin - Минимальная температура - минимум температуры воздуха на высоте 2 м над землей.
Tmax - Максимальная температура - максимум температуры воздуха на высоте 2 м над землей.
R - Количество осадков - Количество выпавших осадков за период времени, мм. При наведении курсора мыши на число - период времени, за который выпало указанное количество осадков.
R24 - Количество осадков - Количество выпавших осадков за 24 часа, мм.
S - Снежный покров - Высота снежного покрова, см. При наведении курсора мыши на число - состояние снежного покрова и степень покрытия местности в баллах.